Погода в Бхадрапуре

Непал     26°33′23″N   88°05′18″E
темп.,
°C
ветер,
м/с
пор.,
м/с
влажн.,
%
обл.,
%
осадки,
мм/ч
давл.,
гПа
погр.,
м
13 мая, чт
чт1323:45+22в388732 3.3 1006268
02:45+21св378925 2.1 1005235
05:45+21всв498615 4.1 1006311
08:45+25св3573100 0.4 1009560
11:45+27всв4464100 0.4 1007866
14:45+27вюв136397 0.0 1003492
17:45+28в22630 0.0 1001149
20:45+25всв227238 0.1 100422
14 мая, пт
пт1423:45+23всв357355 0.1 1005102
02:45+22всв36735 0.1 1004120
05:45+21всв59870 1.1 1005295
08:45+27в56650 0.3 1007658
11:45+31вюв334934 0.3 10041749
14:45+32ю1341100 0.1 10012005
17:45+29св46570 0.1 1001245
20:45+24всв597383 0.0 1003231
15 мая, сб
сб1523:45+23в387983 1.3 1004232
02:45+22всв37850 1.9 1004181
05:45+21всв49877 2.7 1005308
08:45+27в56650 0.3 1007682
11:45+32в44500 0.3 10051249
14:45+33ю2344100 0.1 10022351
17:45+30св57584 0.1 1002243
20:45+27всв59640 0.0 1003182
16 мая, вс
вс1623:45+25в387199 0.0 1005205
02:45+23всв497623 0.5 1004248
05:45+23в5118159 0.7 1005357
08:45+28в896024 0.4 1007748
11:45+33в664636 0.4 10061207
14:45+35юв434497 0.0 10031816
17:45+33в2250100 0.0 100278
20:45+29св3662100 0.1 1004118
17 мая, пн
пн1723:45+27всв4967100 0.1 1004246
02:45+26св597251 0.1 1003248
05:45+25в487543 0.1 1004240
08:45+30в675931 0.5 1006672
11:45+34в66470 0.7 10051280
14:45+36вюв334425 0.0 10022139
17:45+34ссз234740 0.1 100092
20:45+29всв486219 0.0 1002190